#timestamp,LO_Frequency,Hit,StdDev 
1541613615.0,286046993.6,N
1541613615.9,286046993.6,N
1541613635.7,286046996.4,N
1541613655.6,286046994.6,N
1541613675.4,286046993.5,N
1541613695.3,286046995.6,N
1541613715.1,286046998.5,N
1541613716.0,286046998.5,N
1541613735.8,286046997.5,N
1541613755.7,286046996.3,N
1541613775.5,286046992.1,N
1541613795.3,286046992.6,N
1541613815.2,286046995.9,N
1541613835.0,286046996.1,N
1541613835.9,286046996.1,N
1541613855.8,286046996.3,N
1541613875.6,286046995.1,N
1541613895.4,286047001.0,N
1541613915.3,286046999.1,N
1541613935.1,286046999.7,N
1541613955.8,286047000.9,N
1541613975.7,286046999.8,N
1541613995.5,286047000.7,N
1541614015.4,286047003.2,N
1541614035.2,286047001.7,N
1541614055.0,286047003.6,N
1541614055.9,286047003.6,N
1541614075.8,286047003.3,N
1541614095.6,286047004.0,N
1541614115.4,286047004.4,N
1541614135.3,286047001.5,N
1541614155.1,286047002.1,N
1541614175.9,286047000.8,N
1541614195.7,286046996.6,N
1541614215.5,286046996.7,N
1541614235.4,286047001.2,N
1541614255.2,286047004.4,N
1541614275.0,286047002.5,N
1541614275.9,286047002.5,N
1541614295.8,286047000.4,N
1541614315.6,286046998.9,N
1541614335.5,286046996.7,N
1541614355.3,286046998.6,N
1541614375.1,286046999.2,N
1541614395.9,286046998.8,N
1541614415.7,286046997.9,N
1541614435.5,286046995.2,N
1541614455.4,286046997.2,N
1541614475.2,286046995.8,N
1541614495.0,286046994.9,N
1541614496.0,286046994.9,N
1541614515.8,286046993.3,N
1541614535.6,286046993.6,N
1541614555.5,286046996.3,N
1541614575.3,286046996.3,N
1541614595.1,286046994.0,N
1541614615.9,286046992.8,N
1541614635.7,286046988.5,Y
1541614655.6,286046991.3,P
1541614675.4,286046990.3,N
1541614695.2,286046988.7,P
1541614715.1,286046989.7,N
1541614716.0,286046989.7,N
1541614735.8,286046992.5,N
1541614755.6,286046992.5,N
1541614775.5,286046992.5,N
1541614795.3,286046994.7,N
1541614815.2,286046993.7,N
1541614835.9,286046993.2,N
1541614855.7,286046990.1,Y
1541614875.6,286046997.6,P
1541614895.4,286046995.3,N
1541614915.2,286046997.4,N
1541614935.1,286046993.5,Y
1541614936.0,286046993.5,P
1541614955.8,286046999.4,N
1541614975.7,286047002.7,N
1541614995.5,286047001.9,N
1541615015.3,286047004.1,N
1541615035.2,286047003.8,N
1541615055.0,286047002.0,N
1541615055.9,286047002.0,N
1541615075.7,286047002.4,N
1541615095.6,286047001.3,N
1541615115.4,286047003.1,N
1541615135.3,286047001.9,N
1541615155.1,286047000.7,N
1541615156.0,286047000.7,N
1541615175.8,286047002.5,N
1541615195.7,286047001.0,N
1541615215.5,286047000.6,N
1541615235.3,286047002.5,N
1541615255.2,286046999.7,N
1541615275.0,286047000.6,N
1541615275.9,286047000.6,N
1541615295.8,286047001.2,N
1541615315.6,286047001.1,N
1541615335.4,286046999.7,N
1541615355.3,286046998.4,N
1541615375.1,286046999.1,N
1541615395.8,286047003.9,N
1541615415.7,286047002.1,N
1541615435.5,286047007.6,Y
1541615455.4,286047002.0,P
1541615475.2,286047002.6,P
1541615495.0,286047002.1,P
1541615495.9,286047002.1,Y
1541615515.8,286046998.4,P
1541615535.6,286046999.3,N
1541615555.5,286046998.7,N
1541615575.3,286046998.7,N
1541615595.1,286046999.7,N
1541615615.9,286047000.3,N
1541615635.7,286047000.7,N
1541615655.5,286046999.2,N
1541615675.4,286046998.9,N
1541615695.2,286047001.1,N
1541615715.1,286046999.2,N
1541615716.0,286046999.2,N
1541615735.8,286046999.2,N
1541615755.6,286046999.1,N
1541615775.5,286047001.2,N
1541615795.3,286046998.5,N
1541615815.1,286046999.5,N
1541615835.9,286046996.6,Y
1541615855.7,286046995.4,P
1541615875.6,286047001.2,N
1541615895.4,286047003.6,N
1541615915.2,286047003.8,N
1541615935.1,286047001.9,N
1541615936.0,286047001.9,N
1541615955.8,286047004.3,N
1541615975.6,286047001.9,N
1541615995.5,286047001.0,N
1541616015.3,286046998.2,N
1541616035.2,286046999.0,N
1541616055.9,286047000.9,N
1541616075.7,286047002.0,N
1541616095.6,286047002.6,N
1541616115.4,286047001.5,N
1541616135.2,286047004.4,N
1541616155.1,286047003.5,N
1541616156.0,286047003.5,N
1541616175.8,286047003.7,N
1541616195.7,286047004.3,N
1541616215.5,286047006.2,N
1541616235.3,286047006.9,N
1541616255.2,286047007.1,N
1541616275.0,286047007.1,N
1541616275.9,286047007.1,N
1541616295.8,286047004.5,N
1541616315.6,286047005.6,N
1541616335.4,286047004.3,N
1541616355.3,286046998.6,N
1541616375.1,286046998.8,N
1541616376.0,286046998.8,N
1541616395.8,286047000.1,N
1541616415.7,286046998.4,N
1541616435.5,286046997.3,N
1541616455.3,286046995.8,N
1541616475.2,286046998.9,N
1541616495.0,286047001.1,N
1541616495.9,286047001.1,N
1541616515.8,286047000.9,N
1541616535.6,286046999.0,N
1541616555.4,286046999.0,N
1541616575.3,286046999.0,N
1541616595.1,286046998.6,N
1541616615.9,286047004.0,N
1541616635.7,286046999.8,N
1541616655.5,286046998.9,N
1541616675.4,286047002.6,N
1541616695.2,286047002.5,N
1541616715.0,286046999.7,N
1541616715.9,286046999.7,N
1541616735.8,286047001.0,N
1541616755.6,286046999.8,N
1541616775.5,286046999.2,N
1541616795.3,286047001.2,N
1541616815.1,286047004.2,N
1541616865.9,286046999.0,E
1541616875.8,286046998.2,N
1541616895.7,286046998.1,P
1541616915.5,286047000.7,P
1541616935.3,286047000.3,N
1541616955.2,286046999.0,N
1541616975.9,286046996.8,Y
1541616995.7,286046999.1,P
1541617015.6,286046996.7,P
1541617035.4,286046997.8,N
1541617055.3,286046995.0,Y
1541617075.1,286046995.9,P
1541617076.0,286046995.9,P
1541617095.8,286046994.6,P
1541617115.7,286046992.2,Y
1541617135.5,286046997.6,P
1541617155.3,286046996.3,P
1541617175.2,286046994.0,P
1541617195.0,286046996.0,Y
1541617195.9,286046996.0,P
